Location: Doughton Park
(36.4224°N, 81.1835°W)
Time: 19:16:46
(UTC-04:00)

ISS - All Passes

Search period start: 05 July 2015 00:00
Search period end: 15 July 2015 00:00
Orbit: 398 x 403 km, 51.6° (Epoch: 05 July)

Date Brightness Start Highest point End Pass type
(mag) Time Alt. Az. Time Alt. Az. Time Alt. Az.
05 Jul - 08:29:23 10° SW 08:32:37 72° NW 08:35:52 10° NE daylight
05 Jul - 10:08:09 10° NW 10:09:32 12° NNW 10:10:50 10° N daylight
05 Jul - 14:59:01 10° NW 15:02:06 41° NE 15:05:11 10° ESE daylight
05 Jul - 16:36:12 10° W 16:38:17 16° SW 16:40:16 10° SSW daylight
06 Jul - 07:35:59 10° SSW 07:39:07 49° SE 07:42:17 10° ENE daylight
06 Jul - 09:13:22 10° WNW 09:15:43 18° NNW 09:18:03 10° NNE daylight
06 Jul - 14:05:48 10° NNW 14:08:26 23° NNE 14:11:05 10° E daylight
06 Jul - 15:41:55 10° WNW 15:44:53 33° SW 15:47:49 10° SSE daylight
07 Jul - 06:43:06 10° S 06:45:41 22° SE 06:48:19 10° ENE daylight
07 Jul - 08:19:03 10° W 08:21:59 30° NW 08:24:54 10° NNE daylight
07 Jul - 13:12:47 10° N 13:14:39 14° NNE 13:16:33 10° ENE daylight
07 Jul - 14:48:10 10° NW 14:51:24 78° SW 14:54:37 10° SE daylight
08 Jul - 05:51:36 10° SE 05:52:17 11° SE 05:53:06 10° ESE daylight
08 Jul - 07:25:08 10° WSW 07:28:20 60° NW 07:31:33 10° NE daylight
08 Jul - 09:04:16 10° NW 09:05:18 11° NNW 09:06:17 10° N daylight
08 Jul - 13:54:40 10° NW 13:57:49 47° NE 14:00:57 10° ESE daylight
08 Jul - 15:32:13 10° W 15:33:56 13° SW 15:35:33 10° SSW daylight
09 Jul - 06:31:35 10° SW 06:34:47 59° SE 06:37:59 10° NE daylight
09 Jul - 08:09:14 10° WNW 08:11:26 17° NNW 08:13:35 10° NNE daylight
09 Jul - 13:01:22 10° NNW 13:04:07 25° NNE 13:06:53 10° E daylight
09 Jul - 14:37:39 10° WNW 14:40:31 28° SW 14:43:19 10° SSE daylight
10 Jul - 05:38:31 10° S 05:41:16 26° SE 05:44:04 10° ENE visible
10 Jul - 07:14:47 10° W 07:17:37 27° NNW 07:20:27 10° NNE daylight
10 Jul - 12:08:15 10° NNW 12:10:18 16° NNE 12:12:24 10° ENE daylight
10 Jul - 13:43:47 10° NW 13:46:59 65° SW 13:50:11 10° SE daylight
11 Jul - 04:46:24 10° SSE 04:47:49 12° SE 04:49:20 10° E visible
11 Jul - 06:20:43 10° WSW 06:23:54 51° NW 06:27:05 10° NE daylight
11 Jul - 08:00:22 10° NNW 08:00:56 10° NNW 08:01:26 10° N daylight
11 Jul - 11:15:38 10° N 11:16:22 11° NNE 11:17:11 10° NE daylight
11 Jul - 12:50:11 10° NW 12:53:23 55° NE 12:56:33 10° ESE daylight
11 Jul - 14:28:15 10° WSW 14:29:27 11° SW 14:30:31 10° SSW daylight
12 Jul - 05:27:02 10° SW 05:30:16 71° SE 05:33:30 10° NE visible
12 Jul - 07:04:57 10° WNW 07:06:59 15° NNW 07:08:58 10° NNE daylight
12 Jul - 11:56:47 10° NNW 11:59:38 28° NNE 12:02:31 10° E daylight
12 Jul - 13:33:16 10° WNW 13:35:58 24° SW 13:38:37 10° S daylight
13 Jul - 04:33:48 10° SSW 04:36:42 30° SE 04:39:37 10° ENE visible
13 Jul - 06:10:23 10° W 06:13:06 24° NNW 06:15:49 10° NNE daylight
13 Jul - 11:03:34 10° NNW 11:05:48 17° NNE 11:08:04 10° ENE daylight
13 Jul - 12:39:15 10° WNW 12:42:25 54° SW 12:45:34 10° SE daylight
14 Jul - 03:41:21 10° SSE 03:43:10 15° SE 03:45:06 10° E visible
14 Jul - 05:16:11 10° WSW 05:19:18 44° NW 05:22:27 10° NE visible
14 Jul - 10:10:42 10° N 10:11:50 11° NNE 10:13:02 10° NE daylight
14 Jul - 11:45:33 10° NW 11:48:46 65° NE 11:51:59 10° ESE daylight
